| time (UTC) | temp F | wind direction | speed MPH | gust MPH | rain 1hr in | rain 24hr in | rain mn in | humidity % | barometer mb |
| 20260509001542 | 69 | 293 | 7.0 | 15.0 | 0.00 | 0.37 | 0.00 | 74 | 1007.7 |
| 20260509000040 | 68 | 254 | 6.0 | 16.0 | 0.00 | 0.37 | 0.00 | 75 | 1008.0 |
| 20260508234540 | 68 | 295 | 8.0 | 11.0 | 0.00 | 0.37 | 0.00 | 77 | 1008.3 |
| 20260508233038 | 68 | 303 | 7.0 | 14.0 | 0.00 | 0.37 | 0.00 | 79 | 1008.6 |
| 20260508231548 | 67 | 283 | 5.0 | 13.0 | 0.00 | 0.37 | 0.00 | 80 | 1008.8 |
| 20260508230045 | 67 | 305 | 6.0 | 12.0 | 0.00 | 0.37 | 0.00 | 80 | 1009.1 |
| 20260508224550 | 67 | 295 | 6.0 | 13.0 | 0.00 | 0.38 | 0.00 | 82 | 1009.2 |
| 20260508223041 | 66 | 290 | 5.0 | 13.0 | 0.00 | 0.38 | 0.00 | 82 | 1009.2 |
| 20260508221536 | 66 | 315 | 6.0 | 14.0 | 0.00 | 0.38 | 0.00 | 82 | 1009.3 |
| 20260508220039 | 66 | 303 | 6.0 | 10.0 | 0.00 | 0.38 | 0.00 | 81 | 1009.3 |
| 20260508214546 | 66 | 290 | 5.0 | 10.0 | 0.00 | 0.38 | 0.00 | 82 | 1009.3 |
| 20260508213041 | 65 | 269 | 4.0 | 11.0 | 0.00 | 0.38 | 0.00 | 82 | 1009.5 |
| 20260508211542 | 65 | 276 | 3.0 | 6.0 | 0.00 | 0.38 | 0.00 | 85 | 1009.4 |
| 20260508210038 | 64 | 285 | 2.0 | 6.0 | 0.00 | 0.38 | 0.00 | 86 | 1009.5 |
| 20260508204545 | 63 | 323 | 1.0 | 5.0 | 0.00 | 0.38 | 0.00 | 89 | 1009.4 |
| 20260508203042 | 62 | 257 | 2.0 | 7.0 | 0.00 | 0.38 | 0.00 | 92 | 1009.3 |
| 20260508201543 | 61 | 303 | 1.0 | 3.0 | 0.00 | 0.38 | 0.00 | 93 | 1009.2 |
| 20260508200041 | 60 | 250 | 1.0 | 3.0 | 0.00 | 0.38 | 0.00 | 93 | 1009.1 |
| 20260508194541 | 59 | 300 | 1.0 | 4.0 | 0.00 | 0.38 | 0.00 | 93 | 1009.0 |
| 20260508193038 | 59 | 275 | 1.0 | 4.0 | 0.00 | 0.38 | 0.00 | 93 | 1009.0 |
| 20260508191544 | 59 | 242 | 1.0 | 5.0 | 0.00 | 0.38 | 0.00 | 93 | 1009.1 |
| 20260508184543 | 59 | 276 | 1.0 | 5.0 | 0.00 | 0.38 | 0.00 | 93 | 1008.7 |
| 20260508183039 | 59 | 278 | 1.0 | 3.0 | 0.00 | 0.38 | 0.00 | 93 | 1008.5 |
| 20260508181543 | 59 | 299 | 1.0 | 4.0 | 0.00 | 0.38 | 0.00 | 93 | 1008.6 |
| 20260508180037 | 59 | 276 | 2.0 | 5.0 | 0.00 | 0.38 | 0.00 | 93 | 1008.5 |
| 20260508174538 | 59 | 307 | 1.0 | 5.0 | 0.00 | 0.39 | 0.00 | 93 | 1008.5 |
| 20260508173042 | 59 | 311 | 1.0 | 5.0 | 0.00 | 0.39 | 0.00 | 93 | 1008.5 |
| 20260508171542 | 59 | 308 | 1.0 | 3.0 | 0.00 | 0.39 | 0.00 | 93 | 1008.5 |
| 20260508170044 | 59 | 290 | 0.0 | 5.0 | 0.00 | 0.38 | 0.00 | 93 | 1008.3 |
| 20260508164542 | 60 | 236 | 2.0 | 5.0 | 0.00 | 0.38 | 0.00 | 94 | 1008.2 |
| 20260508163046 | 60 | 280 | 2.0 | 9.0 | 0.00 | 0.38 | 0.00 | 93 | 1008.3 |
| 20260508161552 | 60 | 294 | 2.0 | 5.0 | 0.00 | 0.38 | 0.00 | 94 | 1008.3 |
| 20260508160036 | 60 | 296 | 2.0 | 4.0 | 0.00 | 0.38 | 0.00 | 94 | 1008.4 |
| 20260508154535 | 60 | 298 | 2.0 | 6.0 | 0.00 | 0.38 | 0.00 | 94 | 1008.6 |
| 20260508153055 | 61 | 296 | 2.0 | 4.0 | 0.00 | 0.38 | 0.00 | 94 | 1008.6 |
| 20260508151542 | 61 | 271 | 2.0 | 5.0 | 0.00 | 0.38 | 0.00 | 94 | 1008.8 |
| 20260508150040 | 61 | 279 | 3.0 | 7.0 | 0.00 | 0.38 | 0.00 | 98 | 1009.0 |
| 20260508144538 | 61 | 303 | 3.0 | 8.0 | 0.00 | 0.38 | 0.00 | 98 | 1009.0 |
| 20260508143057 | 61 | 293 | 3.0 | 9.0 | 0.00 | 0.38 | 0.00 | 98 | 1009.1 |
| 20260508141546 | 61 | 297 | 4.0 | 10.0 | 0.00 | 0.38 | 0.00 | 98 | 1009.1 |
| 20260508140035 | 61 | 284 | 5.0 | 8.0 | 0.00 | 0.38 | 0.00 | 98 | 1009.3 |
| 20260508134541 | 61 | 276 | 3.0 | 6.0 | 0.00 | 0.38 | 0.00 | 98 | 1009.4 |
| 20260508133037 | 62 | 284 | 2.0 | 6.0 | 0.00 | 0.38 | 0.00 | 98 | 1009.6 |
| 20260508131541 | 62 | 265 | 2.0 | 7.0 | 0.00 | 0.38 | 0.00 | 98 | 1009.4 |
| 20260508130035 | 62 | 262 | 2.0 | 5.0 | 0.00 | 0.38 | 0.00 | 98 | 1009.6 |
| 20260508124536 | 62 | 315 | 2.0 | 6.0 | 0.00 | 0.38 | 0.00 | 98 | 1009.7 |
| 20260508123045 | 62 | 312 | 2.0 | 5.0 | 0.00 | 0.38 | 0.00 | 98 | 1009.7 |
| 20260508121545 | 62 | 304 | 2.0 | 5.0 | 0.00 | 0.38 | 0.00 | 98 | 1009.6 |
| 20260508120039 | 62 | 301 | 1.0 | 4.0 | 0.02 | 0.38 | 0.00 | 98 | 1009.6 |
| 20260508114542 | 61 | 279 | 1.0 | 6.0 | 0.03 | 0.38 | 0.38 | 98 | 1009.6 |
| 20260508113042 | 61 | 255 | 2.0 | 9.0 | 0.09 | 0.38 | 0.38 | 98 | 1009.7 |
| 20260508111543 | 61 | 277 | 3.0 | 9.0 | 0.10 | 0.38 | 0.38 | 98 | 1009.8 |
| 20260508110048 | 61 | 297 | 2.0 | 8.0 | 0.22 | 0.36 | 0.36 | 98 | 1009.9 |
| 20260508104544 | 61 | 240 | 3.0 | 11.0 | 0.24 | 0.34 | 0.34 | 97 | 1010.1 |
| 20260508103049 | 63 | 248 | 3.0 | 9.0 | 0.19 | 0.29 | 0.29 | 97 | 1010.3 |
| 20260508101542 | 66 | 252 | 8.0 | 16.0 | 0.21 | 0.28 | 0.28 | 98 | 1010.1 |
| 20260508100104 | 66 | 286 | 9.0 | 15.0 | 0.07 | 0.14 | 0.14 | 98 | 1009.7 |
| 20260508094547 | 66 | 339 | 8.0 | 20.0 | 0.03 | 0.10 | 0.10 | 98 | 1009.9 |
| 20260508093044 | 66 | 321 | 7.0 | 18.0 | 0.03 | 0.09 | 0.09 | 98 | 1009.9 |
| 20260508091552 | 66 | 321 | 10.0 | 16.0 | 0.01 | 0.07 | 0.07 | 98 | 1010.0 |
| 20260508090048 | 66 | 305 | 9.0 | 17.0 | 0.02 | 0.07 | 0.07 | 97 | 1010.1 |
| 20260508084535 | 66 | 335 | 8.0 | 16.0 | 0.03 | 0.07 | 0.07 | 97 | 1010.3 |
| 20260508083043 | 66 | 288 | 8.0 | 16.0 | 0.01 | 0.05 | 0.05 | 97 | 1010.4 |
| 20260508081554 | 66 | 285 | 9.0 | 17.0 | 0.02 | 0.05 | 0.05 | 97 | 1010.7 |
| 20260508080036 | 66 | 328 | 8.0 | 23.0 | 0.03 | 0.04 | 0.04 | 97 | 1010.8 |
| 20260508074537 | 66 | 316 | 11.0 | 24.0 | 0.02 | 0.03 | 0.03 | 96 | 1010.7 |
| 20260508073043 | 66 | 331 | 9.0 | 17.0 | 0.02 | 0.03 | 0.03 | 95 | 1010.8 |
| 20260508071541 | 67 | 323 | 8.0 | 19.0 | 0.01 | 0.03 | 0.03 | 93 | 1010.9 |
| 20260508070038 | 68 | 318 | 9.0 | 17.0 | 0.00 | 0.01 | 0.01 | 91 | 1010.7 |
| 20260508064538 | 68 | 354 | 9.0 | 19.0 | 0.00 | 0.01 | 0.01 | 91 | 1011.0 |
| 20260508063042 | 68 | 297 | 8.0 | 17.0 | 0.00 | 0.01 | 0.01 | 90 | 1011.0 |
| 20260508061542 | 67 | 271 | 8.0 | 18.0 | 0.00 | 0.01 | 0.01 | 90 | 1011.1 |
| 20260508060056 | 67 | 335 | 9.0 | 20.0 | 0.00 | 0.01 | 0.01 | 90 | 1011.2 |
| 20260508054615 | 67 | 279 | 8.0 | 16.0 | 0.00 | 0.01 | 0.01 | 90 | 1011.2 |
| 20260508053050 | 67 | 325 | 9.0 | 18.0 | 0.00 | 0.01 | 0.01 | 90 | 1011.6 |
| 20260508051537 | 67 | 333 | 9.0 | 17.0 | 0.00 | 0.01 | 0.01 | 90 | 1011.5 |
| 20260508050049 | 68 | 326 | 8.0 | 19.0 | 0.00 | 0.01 | 0.01 | 89 | 1011.4 |
| 20260508044542 | 68 | 352 | 7.0 | 17.0 | 0.00 | 0.01 | 0.01 | 88 | 1011.5 |
| 20260508043040 | 68 | 32 | 9.0 | 15.0 | 0.00 | 0.01 | 0.01 | 87 | 1011.6 |
| 20260508041535 | 68 | 307 | 8.0 | 18.0 | 0.00 | 0.01 | 0.01 | 86 | 1012.0 |
| 20260508040035 | 68 | 52 | 8.0 | 19.0 | 0.00 | 0.01 | 0.01 | 86 | 1011.6 |
| 20260508034543 | 69 | 340 | 9.0 | 20.0 | 0.00 | 0.01 | 0.01 | 85 | 1011.7 |
| 20260508033037 | 69 | 23 | 10.0 | 19.0 | 0.00 | 0.01 | 0.01 | 85 | 1012.3 |
| 20260508031537 | 69 | 328 | 8.0 | 18.0 | 0.00 | 0.01 | 0.01 | 85 | 1012.3 |
| 20260508030040 | 69 | 295 | 8.0 | 21.0 | 0.00 | 0.01 | 0.01 | 84 | 1012.3 |
| 20260508024547 | 70 | 18 | 8.0 | 15.0 | 0.00 | 0.01 | 0.01 | 85 | 1012.7 |
| 20260508023034 | 69 | 288 | 7.0 | 15.0 | 0.00 | 0.01 | 0.01 | 85 | 1012.8 |
| 20260508021541 | 70 | 288 | 9.0 | 19.0 | 0.00 | 0.01 | 0.01 | 84 | 1013.0 |
| 20260508020043 | 70 | 8 | 7.0 | 17.0 | 0.00 | 0.01 | 0.01 | 85 | 1013.3 |
| 20260508014538 | 71 | 360 | 9.0 | 18.0 | 0.00 | 0.03 | 0.01 | 83 | 1013.5 |
| 20260508013035 | 70 | 307 | 10.0 | 16.0 | 0.00 | 0.03 | 0.01 | 83 | 1013.7 |
| 20260508011535 | 69 | 34 | 7.0 | 17.0 | 0.00 | 0.03 | 0.01 | 85 | 1014.0 |
| 20260508010049 | 69 | 25 | 10.0 | 18.0 | 0.00 | 0.03 | 0.01 | 85 | 1014.1 |
| 20260508004541 | 70 | 320 | 7.0 | 19.0 | 0.00 | 0.03 | 0.01 | 84 | 1014.4 |
| 20260508003036 | 70 | 354 | 7.0 | 17.0 | 0.00 | 0.03 | 0.01 | 85 | 1014.6 |